sat.trackr.live / text

‹ back to catalog

STARLINK-35736

NORAD 66230 · 2025-244AA

PAYLOAD ACTIVE UNKNOWN

§ Identity

Operator
Country
US
Launch date
2025-10-28
Launch site
AFWTR
Launch vehicle
Mass (kg)
RCS (m²)

Purposes: comms

External: N2YO · Heavens-Above · Gunter

§ Orbital elements

Epoch: 2026-05-24T22:39:27.265248Z

Period
94.11 min
Inclination
53.1571°
Eccentricity
0.0001000
Mean motion
15.30205084 rev/d
Perigee alt
474.5 km
Apogee alt
475.9 km
Semi-major
6,853.3 km
B*
3.8405e-4
RAAN
235.7663°
Arg perigee
71.0511°
Mean anomaly
289.0598°
Rev number
3,333

§ Raw data

STARLINK-357361 66230U 25244AA  26144.94406557  .00011034  00000+0  38405-3 0  99922 66230  53.1571 235.7663 0001000  71.0511 289.0598 15.30205084 33330

JSON: /api/v1/satellites/66230 · /tle

For live sub-satellite position, see the globe view (requires WebGL).

§ Visibility from observer

Set your observer location to see the next 7 days of passes ≥ 10°. The values pass through the URL so the page stays shareable.

No JS? Fill the form by hand. The geolocation button needs JavaScript.